Flag for U.S.A. Weather past 2 weeks in Roanoke, Virginia, U.S.A.

Now
63 °F

Light rain. More clouds than sun.


Feels Like: 63 °F
Forecast: 59 / 65 °F
Wind: 13 mph from Southeast

Location: Roanoke Regional Airport

Current Time: Apr 19, 2015 at 3:49:03 PM

Latest Report: Apr 19, 2015 at 2:54 PM


Visibility: 10 mi

Pressure: 29.96 "Hg

Humidity: 78%

Dew point: 56 °F

Location of RoanokeLocation

Historic Weather in Roanoke — Graph

°F

Roanoke temperature yesterday

Maximum temperature yesterday: 79 °F (at 2:54 PM)
Minimum temperature yesterday: 54 °F (at 4:54 AM)
Average temperature yesterday: 68 °F

Past Weeks' High & Low Weather Summary

 TemperatureHumidityPressure
High79 °F (Apr 8, 2:54 PM)100% (Apr 14, 8:54 AM)30.43 "Hg (Apr 14, 8:54 AM)
Low32 °F (Apr 5, 7:54 AM)12% (Apr 5, 5:54 PM)29.86 "Hg (Apr 10, 3:54 PM)
Average60 °F66%30.16 "Hg
* Reported Apr 4 1:54 PM — Apr 19 1:54 PM, Roanoke, Weather by CustomWeather, © 2015

Note: Actual official high and low records may vary slightly from our data, if they occured in-between our weather recording intervals... More about our weather records

Advertising

Roanoke weather history for previous 24 hours

 ConditionsComfort  
Time TempWeatherWind HumidityBarometerVisibility
1:54 PM
Sun, Apr 19
63 °FLight rain. More clouds than sun.8 mph81%29.97 "Hg10 mi
12:54 PM64 °FMostly cloudy.10 mph78%29.99 "Hg10 mi
11:54 AM64 °FCloudy.9 mph84%30.01 "Hg10 mi
10:54 AM63 °FLight rain. Overcast.14 mph93%30.02 "Hg7 mi
9:54 AM63 °FLight rain. Mostly cloudy.6 mph90%30.01 "Hg10 mi
8:54 AM63 °FLow clouds.3 mph81%30.02 "Hg10 mi
7:54 AM62 °FLow clouds.3 mph80%30.03 "Hg10 mi
6:54 AM59 °FOvercast.No wind87%30.02 "Hg10 mi
5:54 AM60 °FOvercast.No wind78%30.00 "Hg10 mi
4:54 AM62 °FClear.No wind73%29.99 "Hg10 mi
3:54 AM64 °FPassing clouds.No wind65%30.00 "Hg10 mi
2:54 AM64 °FPassing clouds.No wind68%30.00 "Hg10 mi
1:54 AM65 °FPartly cloudy.No wind66%30.00 "Hg10 mi
12:54 AM66 °FPassing clouds.No wind59%30.01 "Hg10 mi
11:54 PM
Sat, Apr 18
68 °FPassing clouds.8 mph55%30.01 "Hg10 mi
10:54 PM69 °FPassing clouds.3 mph53%30.01 "Hg10 mi
9:54 PM70 °FClear.3 mph51%30.01 "Hg10 mi
8:54 PM71 °FPartly sunny.6 mph47%29.96 "Hg10 mi
7:54 PM74 °FPartly sunny.8 mph43%29.96 "Hg10 mi
6:54 PM75 °FPartly sunny.8 mph43%29.95 "Hg10 mi
5:54 PM78 °FPartly sunny.3 mph39%29.93 "Hg10 mi
4:54 PM79 °FBroken clouds.10 mph41%29.93 "Hg10 mi
3:54 PM77 °FMore clouds than sun.8 mph44%29.95 "Hg10 mi
Weather by CustomWeather, © 2015

See weather overviewHow to use our weather pages